Weather History for KGHG - January, 2013

Change the Weather History Date:

Friday, January 18, 2013

  Actual Average (KBOS) Record (KBOS)
Temperature  
Mean Temperature 26 °F 29 °F  
Max Temperature 32 °F 35 °F 63 °F (1990)
Min Temperature 19 °F 22 °F -3 °F (1974)
Degree Days  
Heating Degree Days 40 36  
Month to date heating degree days 644  
Since 1 July heating degree days 2638  
Cooling Degree Days 0 0  
Month to date cooling degree days 0  
Year to date cooling degree days 0  
Moisture  
Dew Point 3 °F    
Average Humidity 38    
Maximum Humidity 63    
Minimum Humidity 25    
Precipitation  
Precipitation 0.00 in 0.10 in 1.41 in (1915)
Month to date precipitation 1.98  
Year to date precipitation 1.98  
Sea Level Pressure  
Sea Level Pressure 30.31 in    
Wind  
Wind Speed 9 mph (WNW)    
Max Wind Speed 15 mph    
Max Gust Speed 28 mph    
Visibility 10 miles    
Events Rain , Snow    
T = Trace of Precipitation, MM = Missing Value Source: NWS Daily Summary

Daily Weather History Graph

Daily Weather History Graph

Search for Another Location

Airport or City:

Trip Planner

Search our weather history database for the weather conditions in past years. The results will help you decide how hot, cold, wet, or windy it might be!

Date:

Astronomy

Jan. 18, 2013 Rise Set
Actual Time 7:06 AM EST 4:39 PM EST
Civil Twilight 6:36 AM EST 5:10 PM EST
Nautical Twilight 6:01 AM EST 5:44 PM EST
Astronomical Twilight 5:28 AM EST 6:18 PM EST
Moon 10:34 AM EST (1/18) No Moon Set
Length of Visible Light 10h 34m
Length of Day
9h 33m
Waxing Crescent, 47% of the Moon is Illuminated
Jan 18
Waxing Crescent
Jan 18
First Quarter
Jan 26
Full
Feb 3
Last Quarter
Feb 10
New

Hourly Weather History & Observations

Time (EST) Temp. Windchill Dew Point Humidity Pressure Visibility Wind Dir Wind Speed Gust Speed Precip Events Conditions
12:15 AM 32.0 °F 27.5 °F 17.6 °F 55% 30.09 in 10.0 mi NW 4.6 mph - N/A   Overcast
12:35 AM 32.0 °F 25.6 °F 15.8 °F 51% 30.08 in 10.0 mi NNW 6.9 mph - N/A   Overcast
12:55 AM 32.0 °F 23.0 °F 14.0 °F 48% 30.08 in 10.0 mi NW 11.5 mph 16.1 mph N/A   Mostly Cloudy
1:15 AM 32.0 °F 24.8 °F 12.2 °F 44% 30.07 in 10.0 mi NW 8.1 mph 18.4 mph N/A   Partly Cloudy
1:35 AM 32.0 °F 23.6 °F 12.2 °F 44% 30.06 in 10.0 mi NW 10.4 mph 20.7 mph N/A   Clear
1:55 AM 32.0 °F 23.0 °F 10.4 °F 41% 30.08 in 10.0 mi NW 11.5 mph 19.6 mph N/A   Clear
2:15 AM 32.0 °F 23.0 °F 10.4 °F 41% 30.06 in 10.0 mi NNW 11.5 mph 18.4 mph N/A   Mostly Cloudy
2:35 AM 32.0 °F 21.6 °F 14.0 °F 48% 30.09 in 8.0 mi NW 15.0 mph 25.3 mph N/A Snow Light Snow
2:55 AM 30.2 °F 21.3 °F 15.8 °F 55% 30.12 in 10.0 mi NNW 10.4 mph 18.4 mph N/A   Mostly Cloudy
3:15 AM 32.0 °F 23.0 °F 10.4 °F 41% 30.07 in 10.0 mi NNW 11.5 mph 19.6 mph N/A Rain Light Rain
3:35 AM 32.0 °F 23.6 °F 8.6 °F 38% 30.08 in 10.0 mi North 10.4 mph 19.6 mph N/A   Overcast
3:55 AM 32.0 °F 23.6 °F 8.6 °F 38% 30.11 in 10.0 mi North 10.4 mph 18.4 mph N/A   Scattered Clouds
4:15 AM 32.0 °F 24.2 °F 10.4 °F 41% 30.08 in 10.0 mi NNW 9.2 mph 18.4 mph N/A   Scattered Clouds
4:35 AM 30.2 °F 21.3 °F 8.6 °F 40% 30.10 in 10.0 mi NW 10.4 mph 23.0 mph N/A   Partly Cloudy
4:55 AM 30.2 °F 20.8 °F 5.0 °F 34% 30.11 in 10.0 mi NW 11.5 mph 18.4 mph N/A   Mostly Cloudy
5:15 AM 28.4 °F 18.0 °F 5.0 °F 37% 30.12 in 10.0 mi NW 12.7 mph 19.6 mph N/A   Overcast
5:35 AM 28.4 °F 17.5 °F 5.0 °F 37% 30.13 in 10.0 mi NW 13.8 mph 23.0 mph N/A   Overcast
5:55 AM 28.4 °F 18.0 °F 5.0 °F 37% 30.17 in 10.0 mi NW 12.7 mph 20.7 mph N/A   Overcast
6:15 AM 28.4 °F 19.1 °F 5.0 °F 37% 30.19 in 10.0 mi NW 10.4 mph 21.9 mph N/A   Overcast
6:35 AM 26.6 °F 16.2 °F 3.2 °F 37% 30.20 in 10.0 mi WNW 11.5 mph 18.4 mph N/A   Partly Cloudy
6:55 AM 24.8 °F 15.3 °F 5.0 °F 43% 30.21 in 10.0 mi NW 9.2 mph 16.1 mph N/A   Clear
7:15 AM 24.8 °F 15.3 °F 1.4 °F 36% 30.23 in 10.0 mi NW 9.2 mph 19.6 mph N/A   Clear
7:35 AM 24.8 °F 14.0 °F 1.4 °F 36% 30.25 in 10.0 mi NW 11.5 mph 23.0 mph N/A   Clear
7:55 AM 24.8 °F 15.3 °F 3.2 °F 40% 30.26 in 10.0 mi WNW 9.2 mph 17.3 mph N/A   Clear
8:15 AM 24.8 °F 13.4 °F -0.4 °F 34% 30.28 in 10.0 mi WNW 12.7 mph 20.7 mph N/A   Clear
8:35 AM 24.8 °F 12.9 °F -2.2 °F 31% 30.30 in 10.0 mi WNW 13.8 mph 27.6 mph N/A   Clear
8:55 AM 24.8 °F 14.0 °F -0.4 °F 34% 30.31 in 10.0 mi WNW 11.5 mph 18.4 mph N/A   Clear
9:15 AM 24.8 °F 13.4 °F -2.2 °F 31% 30.33 in 10.0 mi NW 12.7 mph 25.3 mph N/A   Clear
9:35 AM 24.8 °F 16.1 °F -5.8 °F 26% 30.34 in 10.0 mi NW 8.1 mph 20.7 mph N/A   Clear
9:55 AM 24.8 °F 14.0 °F -5.8 °F 26% 30.35 in 10.0 mi NW 11.5 mph 21.9 mph N/A   Clear
10:15 AM 24.8 °F 13.4 °F -5.8 °F 26% 30.35 in 10.0 mi WNW 12.7 mph 25.3 mph N/A   Clear
10:35 AM 24.8 °F 12.9 °F -4.0 °F 28% 30.36 in 10.0 mi NW 13.8 mph 18.4 mph N/A   Clear
10:55 AM 23.0 °F 10.6 °F -5.8 °F 28% 30.36 in 10.0 mi NW 13.8 mph 23.0 mph N/A   Clear
11:15 AM 24.8 °F 14.0 °F -4.0 °F 28% 30.36 in 10.0 mi NW 11.5 mph 20.7 mph N/A   Clear
11:35 AM 24.8 °F 15.3 °F -4.0 °F 28% 30.36 in 10.0 mi WNW 9.2 mph 24.2 mph N/A   Clear
11:55 AM 24.8 °F 17.9 °F -2.2 °F 31% 30.36 in 10.0 mi WNW 5.8 mph 20.7 mph N/A   Clear
12:15 PM 26.6 °F 16.2 °F -2.2 °F 29% 30.36 in 10.0 mi NW 11.5 mph 17.3 mph N/A   Clear
12:35 PM 26.6 °F 19.1 °F -2.2 °F 29% 30.35 in 10.0 mi NW 6.9 mph - N/A   Clear
12:55 PM 26.6 °F 18.2 °F -2.2 °F 29% 30.35 in 10.0 mi WNW 8.1 mph - N/A   Clear
1:15 PM 28.4 °F 19.7 °F -4.0 °F 25% 30.37 in 10.0 mi West 9.2 mph - N/A   Clear
1:35 PM 28.4 °F 20.4 °F -4.0 °F 25% 30.37 in 10.0 mi WNW 8.1 mph - N/A   Clear
1:55 PM 28.4 °F 19.7 °F -4.0 °F 25% 30.38 in 10.0 mi WNW 9.2 mph 20.7 mph N/A   Clear
2:15 PM 28.4 °F 18.0 °F -4.0 °F 25% 30.38 in 10.0 mi West 12.7 mph 19.6 mph N/A   Clear
2:35 PM 28.4 °F 18.0 °F -4.0 °F 25% 30.38 in 10.0 mi WNW 12.7 mph 20.7 mph N/A   Clear
2:55 PM 28.4 °F 19.1 °F -4.0 °F 25% 30.39 in 10.0 mi West 10.4 mph 17.3 mph N/A   Clear
3:15 PM 28.4 °F 18.0 °F -4.0 °F 25% 30.39 in 10.0 mi WNW 12.7 mph 20.7 mph N/A   Clear
3:35 PM 28.4 °F 20.4 °F -4.0 °F 25% 30.40 in 10.0 mi WNW 8.1 mph 18.4 mph N/A   Clear
3:55 PM 28.4 °F 20.4 °F -4.0 °F 25% 30.40 in 10.0 mi West 8.1 mph - N/A   Clear
4:15 PM 28.4 °F 19.7 °F -4.0 °F 25% 30.41 in 10.0 mi West 9.2 mph - N/A   Clear
4:35 PM 26.6 °F 21.2 °F -4.0 °F 26% 30.42 in 10.0 mi West 4.6 mph - N/A   Clear
4:55 PM 26.6 °F 22.6 °F -4.0 °F 26% 30.42 in 10.0 mi West 3.5 mph - N/A   Clear
5:15 PM 23.0 °F - -0.4 °F 36% 30.43 in 10.0 mi Calm Calm - N/A   Clear
5:35 PM 23.0 °F 18.4 °F -0.4 °F 36% 30.44 in 10.0 mi SW 3.5 mph - N/A   Clear
5:55 PM 23.0 °F - 1.4 °F 39% 30.45 in 10.0 mi Calm Calm - N/A   Clear
6:15 PM 23.0 °F 18.4 °F 1.4 °F 39% 30.46 in 10.0 mi West 3.5 mph - N/A   Clear
6:55 PM 21.2 °F 16.4 °F 5.0 °F 50% 30.47 in 10.0 mi SW 3.5 mph - N/A   Clear
7:15 PM 21.2 °F 16.4 °F 5.0 °F 50% 30.48 in 10.0 mi SW 3.5 mph - N/A   Clear
7:35 PM 21.2 °F 14.9 °F 3.2 °F 46% 30.48 in 10.0 mi SSW 4.6 mph - N/A   Clear
7:55 PM 21.2 °F 16.4 °F 3.2 °F 46% 30.48 in 10.0 mi WSW 3.5 mph - N/A   Clear
8:15 PM 21.2 °F 16.4 °F 3.2 °F 46% 30.48 in 10.0 mi SSW 3.5 mph - N/A   Clear
8:35 PM 21.2 °F - 3.2 °F 46% 30.48 in 10.0 mi Calm Calm - N/A   Clear
8:55 PM 21.2 °F 16.4 °F 5.0 °F 50% 30.48 in 10.0 mi SW 3.5 mph - N/A   Clear
9:15 PM 21.2 °F 16.4 °F 5.0 °F 50% 30.48 in 10.0 mi SSW 3.5 mph - N/A   Clear
9:35 PM 21.2 °F 13.6 °F 6.8 °F 54% 30.47 in 10.0 mi SW 5.8 mph - N/A   Clear
9:55 PM 21.2 °F 14.9 °F 6.8 °F 54% 30.47 in 10.0 mi SSW 4.6 mph - N/A   Clear
10:15 PM 21.2 °F 16.4 °F 6.8 °F 54% 30.46 in 10.0 mi SW 3.5 mph - N/A   Clear
10:35 PM 21.2 °F - 6.8 °F 54% 30.46 in 10.0 mi Calm Calm - N/A   Clear
10:55 PM 19.4 °F - 8.6 °F 63% 30.46 in 10.0 mi Calm Calm - N/A   Clear
11:15 PM 19.4 °F 12.8 °F 8.6 °F 63% 30.45 in 10.0 mi South 4.6 mph - N/A   Clear
11:35 PM 21.2 °F 14.9 °F 8.6 °F 58% 30.44 in 10.0 mi South 4.6 mph - N/A   Mostly Cloudy
11:55 PM 23.0 °F 17.0 °F 10.4 °F 59% 30.44 in 10.0 mi South 4.6 mph - N/A   Mostly Cloudy